Location: Winter Haven
(28.0220°N, 81.7330°W)
Time: 17:23:58
(UTC-04:00)

Amateur Radio Satellites - All Passes

Search period start: 24 April 2014 16:53
Search period end: 25 April 2014 16:53
Location: Winter Haven, 28.0220°N, 81.7330°W

Satellite Date Start Highest point End Downlink Frequencies (MHz)
Time Altitude Azimuth
AO-7 24 Apr 17:25:33 17:33:50 80° 254° (WSW) 17:42:08 29.400 - 29.500 MHz
OPAL 24 Apr 17:31:11 17:34:16 16° 294° (WNW) 17:37:21 ?
UOSAT-12 24 Apr 17:33:54 17:37:21 21° 304° (NW) 17:40:53 437.025 FM, 437.400 FM
Uosat F 24 Apr 17:51:30 17:55:13 21° 263° (W) 17:58:57 435.120 FM
Hamsat 24 Apr 18:33:28 18:37:13 33° 74° (ENE) 18:41:01 145.90 MHz
Saudisat 1A 24 Apr 18:49:30 18:51:52 14° 54° (NE) 18:54:13 436.775 MHz
RS-15 24 Apr 18:53:00 18:58:57 16° 258° (WSW) 19:05:03 29.354 - 29.394 USB, Beacon 29.352 USB
JAS-2 24 Apr 19:17:43 19:23:00 37° 74° (ENE) 19:27:52 435.800 - 435.900 CW/SSB, 435.910 FM
SO-67 24 Apr 19:22:50 19:25:09 17° 73° (ENE) 19:27:28 435.3500 MHz FM
Hamsat 24 Apr 20:11:14 20:13:14 13° 266° (W) 20:15:16 145.90 MHz
STRAND 1 24 Apr 20:16:48 20:21:53 73° 284° (WNW) 20:26:57 ?
Saudisat 1A 24 Apr 20:27:29 20:31:36 41° 247° (WSW) 20:35:41 436.775 MHz
MaSat-1 24 Apr 20:52:09 20:55:08 47° 291° (WNW) 20:57:45 437.345 MHz
SO-67 24 Apr 20:55:50 20:58:08 17° 264° (W) 21:00:26 435.3500 MHz FM
JAS-2 24 Apr 21:03:57 21:08:04 20° 262° (W) 21:11:56 435.800 - 435.900 CW/SSB, 435.910 FM
HO-68 24 Apr 21:25:29 21:32:15 49° 70° (ENE) 21:39:03 435.675 MHz FM
ISS 24 Apr 21:29:34 21:32:52 57° 46° (NE) 21:36:09 145.800 FM
Oscar 11 24 Apr 22:03:32 22:07:18 31° 73° (ENE) 22:11:05 145.825 FM, Beacon 2401.500 USB
PCSat 24 Apr 22:33:12 22:36:38 17° 105° (ESE) 22:40:04 145.825 MHz
HO-68 24 Apr 23:14:37 23:20:02 23° 263° (W) 23:25:30 435.675 MHz FM
Sapphire 24 Apr 23:29:56 23:35:16 63° 111° (ESE) 23:40:37 437.095 MHz 1200 baud AX-25 AFSK
Oscar 11 24 Apr 23:40:59 23:43:29 15° 265° (W) 23:45:58 145.825 FM, Beacon 2401.500 USB
FUNcube-1 24 Apr 23:46:47 23:50:47 44° 260° (W) 23:54:46 145.950 - 145.970 MHz USB
PCSat 25 Apr 00:14:31 00:19:37 43° 297° (WNW) 00:24:46 145.825 MHz
SO-50 25 Apr 00:19:07 00:23:48 74° 63° (ENE) 00:28:32 436.795 FM
Sapphire 25 Apr 01:16:27 01:19:04 14° 305° (NW) 01:21:40 437.095 MHz 1200 baud AX-25 AFSK
Oscar 16 25 Apr 01:42:30 01:43:49 11° 94° (E) 01:45:07 437.025 USB, Beacon 2401.1428
KITSAT 1 25 Apr 01:44:17 01:52:10 59° 110° (ESE) 02:00:05 435.175 FM
UOSAT-12 25 Apr 02:08:51 02:13:26 50° 61° (ENE) 02:17:57 437.025 FM, 437.400 FM
Uribyol 2 25 Apr 02:26:49 02:30:06 17° 96° (E) 02:33:23 436.500 FM
OPAL 25 Apr 02:59:14 03:03:49 37° 71° (ENE) 03:08:29 ?
AO-27 25 Apr 03:08:43 03:13:43 47° 100° (E) 03:18:41 436.795 MHz FM
Oscar 19 25 Apr 03:08:51 03:14:03 82° 284° (WNW) 03:19:14 437.125 CW, 437.150 USB
ITAMSAT 1 25 Apr 03:17:43 03:22:50 59° 101° (ESE) 03:27:55 435.822 SSB
Oscar 16 25 Apr 03:18:18 03:23:25 60° 285° (WNW) 03:28:30 437.025 USB, Beacon 2401.1428
Gurwin Techsat 1B 25 Apr 03:35:44 03:40:00 25° 97° (E) 03:44:16 435.225 FM
KITSAT 1 25 Apr 03:41:30 03:47:54 25° 306° (NW) 03:54:22 435.175 FM
UOSAT-12 25 Apr 03:51:23 03:53:05 12° 253° (WSW) 03:54:46 437.025 FM, 437.400 FM
AO-Echo 25 Apr 04:02:39 04:07:13 52° 285° (WNW) 04:11:46 ?
Uribyol 2 25 Apr 04:04:49 04:09:38 40° 287° (WNW) 04:14:28 436.500 FM
TMSAT-1 25 Apr 04:19:17 04:24:24 49° 100° (E) 04:29:30 436.925 FM
Uosat F 25 Apr 04:27:41 04:30:55 17° 96° (E) 04:34:08 435.120 FM
PANSAT 25 Apr 04:29:38 04:32:12 17° 154° (SSE) 04:34:46 not established
OPAL 25 Apr 04:39:24 04:42:44 18° 263° (W) 04:46:07 ?
JAS-1B 25 Apr 04:41:50 04:47:16 39° 101° (E) 04:53:19 435.800 - 435.900 CW/SSB
RS-15 25 Apr 04:42:30 04:50:44 23° 104° (ESE) 04:58:42 29.354 - 29.394 USB, Beacon 29.352 USB
AO-27 25 Apr 04:49:55 04:52:46 15° 292° (WNW) 04:55:37 436.795 MHz FM
ITAMSAT 1 25 Apr 04:59:48 05:01:45 12° 294° (WNW) 05:03:43 435.822 SSB
Gurwin Techsat 1B 25 Apr 05:15:20 05:19:51 29° 289° (WNW) 05:24:22 435.225 FM
AO-7 25 Apr 05:35:05 05:43:14 57° 103° (ESE) 05:51:22 29.400 - 29.500 MHz
TMSAT-1 25 Apr 06:00:58 06:03:51 15° 292° (WNW) 06:06:44 436.925 FM
Uosat F 25 Apr 06:05:10 06:09:44 37° 287° (WNW) 06:14:17 435.120 FM
PANSAT 25 Apr 06:08:18 06:12:05 54° 165° (SSE) 06:15:53 not established
AO-40 25 Apr 06:27:05 09:54:23 30° 124° (SE) 11:19:46 Beacon 2401.320
Hamsat 25 Apr 06:28:40 06:29:44 11° 94° (E) 06:30:48 145.90 MHz
JAS-1B 25 Apr 06:33:35 06:37:43 21° 290° (WNW) 06:42:10 435.800 - 435.900 CW/SSB
RS-15 25 Apr 06:50:39 07:02:05 72° 297° (WNW) 07:13:07 29.354 - 29.394 USB, Beacon 29.352 USB
MaSat-1 25 Apr 06:58:33 07:02:01 85° 69° (ENE) 07:06:14 437.345 MHz
STRAND 1 25 Apr 07:25:42 07:30:48 79° 76° (ENE) 07:35:55 ?
AO-7 25 Apr 07:29:00 07:35:26 26° 297° (WNW) 07:41:53 29.400 - 29.500 MHz
PANSAT 25 Apr 07:48:23 07:52:16 84° 357° (N) 07:56:09 not established
Hamsat 25 Apr 08:01:41 08:05:50 43° 285° (WNW) 08:09:58 145.90 MHz
JAS-2 25 Apr 08:16:42 08:22:30 66° 102° (ESE) 08:29:04 435.800 - 435.900 CW/SSB, 435.910 FM
SO-67 25 Apr 08:25:48 08:29:14 54° 100° (E) 08:32:38 435.3500 MHz FM
Sapphire 25 Apr 08:27:20 08:29:36 13° 54° (NE) 08:31:52 437.095 MHz 1200 baud AX-25 AFSK
Saudisat 1A 25 Apr 08:49:17 08:52:16 18° 109° (ESE) 08:55:16 436.775 MHz
HO-68 25 Apr 09:04:33 09:06:50 12° 94° (E) 09:09:07 435.675 MHz FM
PCSat 25 Apr 09:09:28 09:14:23 34° 61° (ENE) 09:19:16 145.825 MHz
RS-15 25 Apr 09:10:29 09:16:33 16° 320° (NW) 09:22:36 29.354 - 29.394 USB, Beacon 29.352 USB
PANSAT 25 Apr 09:28:38 09:32:31 78° 190° (S) 09:36:24 not established
JAS-2 25 Apr 10:04:29 10:07:11 14° 292° (WNW) 10:10:01 435.800 - 435.900 CW/SSB, 435.910 FM
Sapphire 25 Apr 10:08:05 10:13:28 68° 249° (WSW) 10:18:48 437.095 MHz 1200 baud AX-25 AFSK
Saudisat 1A 25 Apr 10:27:37 10:31:35 31° 301° (WNW) 10:35:34 436.775 MHz
HO-68 25 Apr 10:47:49 10:55:02 85° 286° (WNW) 11:02:13 435.675 MHz FM
PCSat 25 Apr 10:53:24 10:57:30 22° 254° (WSW) 11:01:36 145.825 MHz
PANSAT 25 Apr 11:09:08 11:12:33 30° 201° (SSW) 11:15:57 not established
Oscar 11 25 Apr 11:33:41 11:37:52 47° 285° (WNW) 11:42:03 145.825 FM, Beacon 2401.500 USB
KITSAT 1 25 Apr 11:40:26 11:48:16 51° 61° (ENE) 11:56:01 435.175 FM
FUNcube-1 25 Apr 11:42:24 11:46:43 58° 101° (E) 11:51:07 145.950 - 145.970 MHz USB
ISS 25 Apr 12:30:12 12:33:25 51° 130° (SE) 12:36:39 145.800 FM
HO-68 25 Apr 12:39:38 12:41:40 11° 300° (WNW) 12:43:42 435.675 MHz FM
KITSAT 1 25 Apr 13:36:47 13:43:09 26° 255° (WSW) 13:49:31 435.175 FM
Uribyol 2 25 Apr 13:39:22 13:41:38 13° 67° (ENE) 13:43:54 436.500 FM
RS-15 25 Apr 13:51:43 13:57:16 15° 39° (NE) 14:02:51 29.354 - 29.394 USB, Beacon 29.352 USB
ISS 25 Apr 14:09:08 14:10:20 12° 324° (NW) 14:11:32 145.800 FM
Oscar 19 25 Apr 14:18:42 14:23:47 71° 76° (ENE) 14:28:56 437.125 CW, 437.150 USB
AO-27 25 Apr 14:20:17 14:24:58 36° 72° (ENE) 14:29:40 436.795 MHz FM
SO-50 25 Apr 14:27:38 14:32:04 64° 298° (WNW) 14:36:31 436.795 FM
Oscar 16 25 Apr 14:28:08 14:33:16 84° 257° (WSW) 14:38:26 437.025 USB, Beacon 2401.1428
ITAMSAT 1 25 Apr 14:29:01 14:33:54 43° 73° (ENE) 14:38:46 435.822 SSB
Gurwin Techsat 1B 25 Apr 14:50:39 14:54:26 20° 69° (ENE) 14:58:14 435.225 FM
AO-Echo 25 Apr 15:07:57 15:13:12 89° 258° (WSW) 15:18:19 ?
Uribyol 2 25 Apr 15:15:33 15:20:35 54° 259° (W) 15:25:38 436.500 FM
OPAL 25 Apr 15:16:54 15:20:34 19° 98° (E) 15:24:11 ?
JAS-1B 25 Apr 15:20:53 15:26:20 21° 69° (ENE) 15:31:13 435.800 - 435.900 CW/SSB
TMSAT-1 25 Apr 15:33:20 15:38:12 39° 73° (ENE) 15:43:04 436.925 FM
Uosat F 25 Apr 15:36:02 15:37:49 12° 67° (ENE) 15:39:36 435.120 FM
AO-27 25 Apr 16:00:51 16:04:29 19° 264° (W) 16:08:07 436.795 MHz FM
RS-15 25 Apr 16:00:57 16:11:55 68° 62° (ENE) 16:23:14 29.354 - 29.394 USB, Beacon 29.352 USB
ITAMSAT 1 25 Apr 16:10:29 16:13:29 16° 265° (W) 16:16:29 435.822 SSB
UOSAT-12 25 Apr 16:13:15 16:17:44 77° 115° (ESE) 16:22:20 437.025 FM, 437.400 FM
AO-7 25 Apr 16:26:40 16:34:14 42° 67° (ENE) 16:41:49 29.400 - 29.500 MHz
Gurwin Techsat 1B 25 Apr 16:29:15 16:34:05 36° 261° (W) 16:38:57 435.225 FM
